Location: Caltech
(34.1382°N, 118.1253°W)
Time: 13:25:29
(UTC-07:00)

Cosmos 1758 Rocket - Visible Passes

Search period start: 24 July 2016 00:00
Search period end: 03 August 2016 00:00
Orbit: 603 x 635 km, 82.5° (Epoch: 24 July)

Date Brightness Start Highest point End Pass type
(mag) Time Alt. Az. Time Alt. Az. Time Alt. Az.
24 Jul 5.7 02:00:07 10° N 02:02:07 25° NNE 02:02:07 25° NNE visible
25 Jul 5.7 02:17:30 10° N 02:19:14 23° N 02:19:14 23° N visible
26 Jul 6.6 00:58:55 10° NE 00:59:13 11° NE 00:59:13 11° NE visible
26 Jul 6.0 02:35:15 10° NNW 02:36:22 17° NNW 02:36:22 17° NNW visible
27 Jul 6.3 01:15:15 10° NNE 01:16:23 16° NNE 01:16:23 16° NNE visible
27 Jul 6.3 02:53:29 10° NW 02:53:31 10° NW 02:53:31 10° NW visible
28 Jul 6.2 01:32:17 10° N 01:33:33 18° N 01:33:33 18° N visible
29 Jul 6.2 01:49:43 10° N 01:50:45 17° NNW 01:50:45 17° NNW visible
30 Jul 6.4 02:07:30 10° NNW 02:07:57 12° NNW 02:07:57 12° NNW visible
31 Jul 6.5 00:47:23 10° NNE 00:48:01 13° NNE 00:48:01 13° NNE visible
01 Aug 6.5 01:04:28 10° N 01:05:14 15° N 01:05:14 15° N visible
02 Aug 6.5 01:21:56 10° NNW 01:22:29 13° NNW 01:22:29 13° NNW visible
